Location: Most
(50.5330°N, 13.6500°E)
Time: 13:52:24
(UTC+01:00)

N. Korean satellite - Pass Details

Date: 23 October 2021
Orbit: 446 x 495 km, 97.3° (Epoch: 06 December)

Event Time Altitude Azimuth Distance (km) Brightness Sun altitude
Rises 18:39:38 0° 213° (SSW) 2,529 10.9 -7.4°
Reaches altitude 10° 18:42:38 10° 243° (WSW) 1,669 10.7 -7.9°
Maximum altitude 18:44:22 13° 272° (W) 1,499 10.5 -8.1°
Drops below altitude 10° 18:46:07 10° 301° (WNW) 1,688 10.1 -8.4°
Sets 18:49:13 0° 330° (NNW) 2,587 10.6 -8.9°
